Arcadia, IN (46030)

11:08 PM EDT on September 03, 2015 (GMT -0400)
Becks Corporate | | Change Station
CLOSE
Current Station
Personal Weather Station
Location: Atlanta, IN
Elevation: 866 ft
Nearby Weather Stations

Elev 866 ft 40.19 °N, 86.05 °W | Updated 3 minutes ago

Clear
Clear
74.2 °F
Feels Like 73 °F
N
0.0
Wind Variable Wind from SW
Gusts 0.0 mph

Today
High -- | Low -- °F
--% Chance of Precip.
Yesterday
High -- | Low -- °F
Precip. -- in
7:13 AM 8:12 PM
Waning Gibbous, 64% visible
Pressure 29.97 in
Visibility 10.0 miles
Clouds Clear
Heat Index 73 °F
Dew Point 70 °F
Humidity 87%
Rainfall 0.00 in
Snow Depth Not available.
UV 0 out of 12
Pollen 10.60 out of 12
Air Quality Not available.
Flu Activity Not available.
METAR KTYQ 040255Z AUTO 24003KT 10SM CLR 21/19 A2997 RMK AO2 T02110187
Pressure 29.97 in
Visibility 10.0 miles
Clouds Clear
Heat Index 73 °F
Dew Point 70 °F
Humidity 87%
Rainfall 0.00 in
Snow Depth Not available.
UV 0 out of 12
Pollen 10.60 out of 12
Air Quality Not available.
Flu Activity Not available.
METAR KTYQ 040255Z AUTO 24003KT 10SM CLR 21/19 A2997 RMK AO2 T02110187

10-Day Weather Forecast

×

Almanac

Astronomy

Sep. 03, 2015 Rise Set
Actual Time
Civil Twilight
Nautical Twilight
Astronomical Twilight
Moon
Length of Visible Light
Length of Day
Tomorrow will be .
, % of the Moon is Illuminated

Today's Extremes

State Highs State Lows

Community

WunderPhotos

Upload Photos

1,852,108 photos uploaded!

WunderBlogs® & News

Nearby

Air Quality

  Air Quality AQ Index Pollutant
Not available.

Snow Depth

Station Depth Elevation

Earthquake Activity

City Distance Mag. Time & Date
Minimum magnitude displayed is 2.5.

Coastal Water Temperatures

Place Temperature

Stations

Nearby Weather Stations

Station Location Temp. Windchill Dew Point Humidity Wind Precip. Elev Updated Type